Location: ??
(35.6850°N, 139.7514°E)
Time: 23:58:03
(UTC+00:00)

Daily predictions for brighter satellites

Satellite Brightness Start Highest point End
(mag) Time Altitude Azimuth Time Altitude Azimuth Time Altitude Azimuth
Cosmos 2219 Rocket 4.2 18:26:25 18° NNE 18:26:25 18° NNE 18:27:51 10° NNE
USA 267 4.4 18:19:48 10° NNE 18:23:34 31° N 18:23:34 31° N
CZ-2C R/B 4.3 18:24:21 10° NNE 18:26:17 23° NNE 18:26:17 23° NNE
COSMOS 2428 3.7 18:28:42 33° SSE 18:30:30 43° ESE 18:35:51 10° NE
Cosmos 2322 4.1 18:37:50 59° SE 18:38:17 61° ESE 18:43:52 10° NNE
CZ-3 R/B 3.8 18:37:10 18° SW 18:50:12 38° S 18:57:01 10° ESE
Chandra Rocket (1) 3.5 18:56:54 38° S 18:57:52 42° SSE 19:08:54 10° E
USA 234 3.7 18:52:21 10° ESE 18:58:43 56° NE 19:02:06 28° NNW
Cosmos 1153 Rocket 4.3 18:59:57 10° N 19:06:10 85° W 19:12:25 10° S
Cosmos 2237 Rocket 3.8 19:02:37 10° SSE 19:07:41 35° ESE 19:12:46 10° NE
UNK 3.9 19:03:20 10° S 19:07:02 60° S 19:07:02 60° S
Cosmos 2278 Rocket 4.4 19:03:34 10° N 19:07:51 22° ENE 19:12:07 10° ESE
Cosmos 1340 Rocket 3.1 19:11:33 58° SE 19:11:33 58° SE 19:14:47 10° SSE
ACS3 Solar Sail 3.8 19:06:35 10° NNW 19:07:11 13° NNW 19:07:11 13° NNW
Meteor 1-24 Rocket 4.2 19:09:47 10° S 19:15:33 61° E 19:21:08 10° NNE
Intercosmos 25 Rocket 4.1 19:18:49 34° SSW 19:20:49 64° W 19:27:54 10° N
Meteor 2-5 Rocket 4.1 19:18:59 10° S 19:24:51 68° E 19:30:42 10° NNE
SL-16 R/B 4.1 19:22:40 10° SSW 19:24:31 18° SW 19:24:31 18° SW
Meteor 2-14 Rocket 4.5 19:22:00 10° SSW 19:27:57 53° W 19:33:55 10° N
Gbstr 26 Del rocket 4.1 19:28:57 33° NW 19:29:13 33° NNW 19:34:16 10° NE
NOSS 3-1 (C) 3.6 19:30:35 33° NW 19:30:35 33° NW 19:34:52 10° NNE
Meteor 2-21 Rocket 4.5 19:25:16 10° S 19:31:24 84° E 19:37:32 10° N
Cosmos 1703 Rocket 3.6 19:27:25 10° S 19:31:43 78° E 19:36:05 10° N
IUS-1 SRM-2 4.5 19:32:20 22° WSW 19:37:19 35° SSW 19:40:58 10° SE
Cosmos 921 Rocket 3.0 19:36:46 32° NW 19:38:38 58° WSW 19:42:58 10° S
NOAA 12 4.3 19:38:14 10° NNE 19:43:35 75° ESE 19:48:52 10° S
CZ-4 R/B 3.8 19:40:54 10° NNE 19:45:47 89° WNW 19:50:33 10° SSW
Cosmos 1943 Rocket 3.2 19:41:26 10° N 19:46:44 46° ENE 19:51:58 10° SE
Cosmos 1328 3.7 19:44:12 10° SSW 19:47:42 48° W 19:51:14 10° N
Cosmos 2100 Rocket 4.0 19:46:26 10° NNW 19:52:26 57° W 19:58:26 10° S
Cosmos 1939 Rocket 4.0 19:52:13 10° NNW 19:54:24 23° NW 19:54:24 23° NW
SJ-11-01 4.4 19:51:39 10° N 19:56:10 49° WNW 20:00:41 10° SSW
Cosmos 44 Rocket 3.6 19:52:09 10° NNW 19:57:17 72° ENE 20:02:25 10° SE
Cosmos 1782 Rocket 4.4 19:54:59 10° N 19:59:17 52° E 20:03:31 10° SSE
NOSS 0 Rocket 4.0 19:54:57 10° SW 20:00:55 52° WNW 20:06:55 10° NNE
Cosmos 1140 Rocket 3.4 19:57:46 10° NNW 20:02:51 69° WSW 20:07:53 10° S
SL-16 R/B 4.5 20:00:56 10° SSE 20:05:42 28° ESE 20:10:28 10° NE
CZ-2C R/B 4.2 20:03:56 10° NNW 20:05:30 14° NW 20:05:30 14° NW
BREEZE-M DEB (TANK) 3.7 20:04:25 18° W 20:07:20 31° NW 20:09:38 10° NNE
BlueWalker 3 3.0 20:04:44 12° NNW 20:07:48 36° NE 20:11:09 10° ESE
Helios 1A Rocket 2.3 20:04:32 10° SSE 20:07:55 84° W 20:11:18 10° NNW
NOSS 3-1 (A) 3.3 20:09:40 10° WSW 20:13:55 38° NW 20:18:50 10° NNE
Cosmos 1459 Rocket 4.4 20:08:47 10° NNW 20:14:42 42° W 20:20:33 10° SSW
COSMOS 2428 3.7 20:10:51 12° WSW 20:14:52 24° WNW 20:19:25 10° N
Cosmos 1908 Rocket 3.9 20:10:54 10° NNW 20:15:07 44° W 20:19:17 10° SSW
Iridium 4 Rocket 3.1 20:13:21 10° NNW 20:17:30 52° W 20:21:30 10° SSW
BREEZE-M DEB (TANK) 1.7 20:15:07 10° SW 20:17:35 74° SE 20:20:48 10° ENE
Cosmos 2056 Rocket 4.2 20:15:03 10° S 20:20:19 60° ESE 20:25:38 10° NNE
Cosmos 1300 Rocket 3.4 20:16:09 10° N 20:20:28 75° W 20:24:45 10° S
IRS-1D 4.0 20:17:01 10° N 20:21:28 34° WNW 20:25:52 10° SW
Cosmos 1725 Rocket 4.2 20:18:12 10° NNW 20:24:19 53° W 20:30:24 10° SSW
Cosmos 1802 Rocket 4.4 20:25:34 10° NNW 20:31:25 41° W 20:37:11 10° SSW
SJ 16-02 3.4 20:30:19 10° N 20:33:59 27° ENE 20:37:39 10° SE
ATLAS 3B R/B 4.2 20:27:23 10° S 20:34:16 47° ESE 20:41:36 10° NE
Cosmos 1980 4.2 20:30:08 10° SW 20:35:17 36° WNW 20:40:29 10° N
Cosmos 2233 Rocket 4.0 20:29:49 10° NNW 20:36:03 65° W 20:42:13 10° S
USA 276 2.3 20:33:28 10° NW 20:36:05 54° NE 20:38:54 10° ESE
Cosmos 1371 Rocket 4.1 20:33:29 10° SSW 20:38:42 87° ESE 20:44:02 10° NNE
Thor Agena Rocket 4.0 20:35:51 10° NNE 20:41:04 70° ESE 20:46:11 10° S
USA 234 4.0 20:35:53 10° S 20:41:48 36° SW 20:47:45 10° WNW
Cosmos 407 Rocket 3.6 20:38:46 10° NNW 20:43:46 57° WSW 20:48:43 10° S
